Location: Buckeye Ditch
(40.9104°N, 122.9517°W)
Time: 03:26:30
(UTC+00:00)

SR - Pass Details

Date: 28 May 2025
Orbit: 577 x 845 km, 66.7° (Epoch: 12 December)

Event Time Altitude Azimuth Distance (km) Brightness Sun altitude
Exits shadow 06:05:56 33° 193° (SSW) 1,388 ? -21.3°
Maximum altitude 06:08:35 72° 117° (ESE) 889 ? -21.6°
Drops below altitude 10° 06:14:17 10° 34° (NNE) 2,457 ? -22.1°
Enters shadow 07:21:01 -49° 220° (SW) 10,487 ? -26.6°
